Wind_Speed
34 36 40 42 41 44 47 41 39 40 40 39 36 35 35 35 35 34 33 32 33 33 33 34 35 36 36 37 38 38 38 38 38 38 38 39 38 37 36 34 32 30 29 27 25 23 21 19 18 17 15 14 13 12 11 11 10 9 10 9 8 7 6 5 6 6 6 6 6 6 6 5 4 3 3 3 3 3 3 2 1 0 2 3 4 5 7 8
35 37 40 42 41 44 48 43 41 41 40 39 37 36 35 35 36 35 34 33 33 34 34 34 35 36 37 37 38 38 37 37 37 38 38 38 38 37 36 34 33 31 29 27 26 24 22 20 18 18 17 15 14 13 13 12 12 11 12 10 9 7 6 7 8 7 6 5 6 6 6 5 4 4 3 2 2 3 3 3 2 1 1 2 4 5 6 7
35 38 40 43 42 44 48 45 42 42 40 38 37 36 36 35 36 36 35 35 34 34 34 35 35 36 37 37 38 38 37 37 37 37 38 38 37 37 35 34 33 31 30 28 27 25 24 22 20 19 18 17 16 15 14 14 13 13 14 11 9 7 8 9 9 7 7 6 6 7 6 6 5 4 4 3 3 3 4 4 3 2 1 2 3 4 5 6
36 39 41 44 44 45 48 46 43 42 40 38 37 37 37 36 36 36 36 36 35 34 33 34 35 36 36 37 37 37 37 37 37 37 37 37 37 36 35 34 33 31 30 29 27 26 24 23 21 20 20 19 18 17 17 16 15 15 15 12 10 10 11 11 10 8 8 8 7 7 7 7 5 5 5 4 4 4 4 5 5 3 2 2 3 4 5 6
38 40 43 45 45 45 47 47 45 43 40 39 39 39 38 37 37 36 36 36 35 35 34 33 34 35 35 36 37 37 37 37 37 37 37 37 36 36 35 34 33 31 30 29 27 26 25 23 22 21 21 20 19 19 18 17 17 17 16 14 13 13 13 13 11 9 9 9 9 9 8 7 6 6 6 5 5 5 4 5 6 4 2 2 3 4 5 6
39 41 44 46 46 46 47 48 47 44 42 41 41 41 41 40 38 37 36 35 35 35 35 34 33 33 34 35 36 37 38 37 36 37 36 36 36 35 35 34 33 31 30 29 28 27 26 25 24 23 22 21 21 20 19 19 20 19 16 15 15 14 14 13 12 11 10 10 10 9 8 8 7 7 7 5 6 6 5 5 5 5 4 3 3 4 5 5
40 42 46 47 47 47 48 48 48 46 45 44 44 43 42 41 40 38 36 35 34 34 34 34 34 33 33 33 34 36 37 36 36 37 36 36 35 35 34 33 32 32 31 30 29 28 26 25 25 24 22 22 21 20 21 21 21 19 17 17 16 16 16 15 13 12 12 11 11 10 9 8 8 7 7 6 6 7 6 5 5 5 4 3 3 4 4 5
41 43 46 49 49 49 49 50 49 48 47 47 46 45 43 42 40 39 37 36 35 34 33 33 34 33 33 33 33 34 35 35 35 36 36 36 36 35 34 34 33 32 31 30 29 28 27 26 25 23 22 22 20 21 22 22 22 20 18 19 18 18 17 16 15 14 13 12 12 11 9 9 8 7 7 6 7 7 6 5 5 4 4 3 3 4 4 5
42 43 46 50 51 51 51 52 51 50 49 49 48 47 45 43 41 39 38 36 35 34 34 33 33 33 33 33 33 33 33 33 33 34 35 35 35 34 34 34 33 32 31 30 29 28 27 26 24 23 22 22 21 22 23 23 22 20 19 20 20 19 18 17 16 15 14 14 13 12 10 9 8 8 7 6 7 7 5 4 4 3 4 3 3 3 4 5
43 44 46 49 52 52 52 53 53 52 51 50 49 48 45 44 42 40 39 38 36 35 34 33 32 33 33 33 33 32 32 33 33 33 33 33 33 33 33 33 32 32 31 30 29 28 27 25 24 23 23 22 22 23 24 24 22 21 21 22 21 19 19 18 17 16 16 15 14 12 11 10 9 8 6 5 6 6 5 4 3 3 3 3 4 4 5 6
45 45 46 48 51 52 52 54 55 53 53 52 51 48 46 45 43 42 41 39 38 36 35 34 33 33 33 32 32 31 32 33 32 33 33 33 33 33 32 32 31 31 30 29 29 27 26 25 25 24 24 23 24 25 25 24 23 22 23 23 21 20 19 18 18 17 16 15 14 13 11 10 9 8 6 5 7 6 5 4 4 3 3 3 5 6 6 7
46 46 46 48 50 52 52 53 56 55 54 54 53 50 47 46 45 44 42 40 39 37 36 35 34 34 33 32 32 31 32 33 32 33 33 33 33 32 32 32 31 31 30 30 29 27 26 25 25 24 24 24 24 24 24 24 23 23 24 23 21 20 20 19 19 18 17 16 15 14 12 11 10 8 7 8 7 6 5 5 5 4 4 5 6 7 8 7
47 46 46 48 49 51 51 53 56 56 56 56 55 51 49 48 47 45 44 42 40 38 36 35 35 34 33 32 32 31 32 32 31 32 32 32 32 32 32 31 31 30 30 29 28 27 26 25 25 24 23 24 24 24 24 24 24 24 24 22 21 21 21 20 20 19 18 17 16 15 12 12 11 9 9 9 8 7 7 6 6 6 6 6 7 8 9 8
47 47 46 47 49 50 51 52 56 57 57 58 56 53 50 49 48 47 45 43 41 39 37 36 35 35 34 33 32 31 31 31 31 31 31 31 31 31 31 30 30 29 29 28 27 26 26 25 25 24 23 24 24 24 25 25 25 25 23 22 22 22 21 21 20 19 19 19 17 15 13 14 13 11 11 10 9 9 8 8 7 7 8 8 9 10 10 10
47 47 47 48 49 50 51 52 55 58 59 59 57 54 52 50 49 48 46 44 42 40 38 37 36 36 35 33 32 31 31 31 31 31 31 30 30 30 30 29 29 28 28 27 27 26 25 25 24 24 24 24 24 25 25 25 25 24 24 23 23 23 22 22 21 20 20 20 19 16 14 15 14 12 12 11 10 10 10 9 9 9 9 10 10 10 10 11
48 48 48 49 50 51 52 52 55 59 60 60 58 56 54 51 50 49 47 45 43 42 40 38 38 37 35 33 32 31 30 30 30 31 30 30 29 29 28 29 28 28 28 27 26 26 25 25 25 24 24 25 25 26 25 25 25 24 24 24 24 24 23 23 22 21 21 21 19 17 15 16 15 14 14 13 12 11 10 10 10 10 10 10 11 11 11 10
49 49 49 50 50 52 53 53 55 58 60 60 59 57 55 52 51 50 48 47 45 43 41 40 39 38 36 34 32 31 30 30 30 30 30 30 29 28 28 28 28 28 28 27 27 26 25 25 25 25 26 26 26 26 25 25 24 24 25 25 25 24 23 23 23 23 22 22 20 18 16 16 17 17 15 14 13 12 11 12 12 11 11 11 11 11 12 11
50 50 50 50 50 51 53 54 55 57 60 61 60 59 56 54 52 51 49 48 46 44 43 42 41 40 38 35 33 32 31 31 31 31 30 30 30 29 28 29 28 28 28 28 27 26 26 26 26 27 26 26 25 25 24 25 25 26 26 25 25 25 24 24 24 24 23 22 21 20 18 18 19 18 16 15 14 13 12 12 12 12 13 12 11 10 12 12
52 51 50 50 50 51 52 54 55 56 58 60 61 60 58 56 54 53 51 49 48 46 45 43 43 42 39 36 34 33 32 32 31 31 30 30 30 29 29 29 29 29 28 28 27 27 26 26 26 27 26 25 25 25 26 27 27 27 26 26 26 25 25 25 24 24 24 23 22 21 20 20 20 18 17 17 15 13 13 13 13 13 13 13 11 11 12 13
52 52 52 51 51 52 53 54 55 56 57 58 60 60 59 57 56 55 53 51 49 47 46 44 44 43 41 38 37 35 34 33 32 31 30 30 30 30 29 29 29 29 29 28 28 27 27 26 26 26 26 27 27 28 29 29 29 27 27 26 27 26 26 25 25 25 25 25 24 23 22 21 20 20 19 19 17 14 13 14 14 14 14 13 13 14 15 14
53 53 52 52 52 52 53 54 55 56 57 57 58 60 60 58 57 56 53 52 50 49 47 46 45 45 43 40 38 37 36 34 33 32 31 30 30 30 30 29 29 29 29 29 28 28 27 27 26 26 27 28 29 30 30 29 28 28 28 27 27 27 27 27 26 26 26 27 26 25 24 22 21 21 20 20 18 15 14 16 16 16 15 14 15 17 17 17
54 54 53 53 53 53 54 55 56 56 57 58 58 59 59 58 58 57 55 53 52 50 49 48 47 46 44 42 40 38 37 35 34 33 32 31 31 31 30 30 30 30 30 30 29 28 28 28 27 27 28 29 30 30 30 29 28 29 29 28 28 28 28 28 27 27 28 27 26 27 27 23 22 22 21 21 20 16 16 18 17 17 16 16 18 18 19 20
53 53 54 54 54 54 54 55 56 57 57 58 58 59 59 59 58 58 56 55 54 52 51 50 49 48 46 44 42 41 39 38 36 35 34 33 33 32 32 31 31 31 30 30 29 29 29 29 29 29 29 30 30 31 31 30 30 30 30 29 29 29 30 30 29 29 29 28 28 29 29 25 22 23 23 23 21 18 18 20 18 18 18 19 20 20 20 21
52 53 53 54 54 54 55 55 56 57 58 58 59 59 59 59 58 58 57 56 55 54 53 52 51 50 49 47 44 43 42 40 39 38 36 35 35 34 33 33 33 32 31 31 30 30 30 30 30 30 30 30 31 31 31 31 31 31 30 30 30 30 31 31 30 30 29 30 30 30 31 26 23 25 25 24 22 20 20 21 20 20 20 21 22 22 23 23
50 52 53 54 54 55 55 56 56 57 58 59 59 60 60 59 59 58 57 57 56 55 55 54 53 52 51 48 47 45 44 43 42 40 39 38 37 36 35 35 34 34 33 33 32 32 31 31 31 31 31 31 31 31 32 32 33 32 31 31 31 32 32 32 32 32 31 32 32 32 32 28 24 25 26 24 24 22 22 23 22 22 23 24 25 25 25 25
49 50 52 53 54 54 55 55 56 57 58 58 59 59 59 59 59 58 58 58 58 57 56 55 54 53 52 50 49 47 47 45 44 43 42 40 39 38 37 37 35 35 34 34 34 33 33 33 33 32 32 31 31 31 32 33 34 34 33 33 33 33 33 34 34 34 34 34 33 33 34 30 25 24 24 25 24 24 24 25 24 24 25 26 27 27 27 27
49 49 49 51 53 54 55 55 55 56 57 58 58 58 59 59 59 59 58 58 59 57 56 56 54 53 52 51 50 48 48 47 45 44 43 42 41 40 39 38 37 36 36 35 34 33 33 33 33 33 32 31 31 32 33 34 35 35 35 34 35 35 35 35 36 37 36 36 35 34 35 34 27 22 23 25 25 24 26 26 25 25 26 27 28 29 29 30
48 49 49 49 50 53 54 55 55 55 56 57 57 57 58 58 59 59 58 60 60 58 56 56 55 53 52 52 51 50 49 48 45 45 44 43 43 42 41 40 38 38 37 37 36 34 34 34 34 34 34 34 33 34 35 35 36 36 36 36 36 37 37 37 38 38 39 38 36 35 35 37 32 23 23 25 25 26 28 27 27 27 28 28 29 31 32 32
46 48 50 50 50 50 52 54 54 55 55 55 55 56 57 57 58 59 59 61 61 59 57 56 55 55 54 53 52 51 51 49 48 47 45 45 45 43 43 41 40 40 40 39 38 36 35 35 35 36 36 35 35 36 36 36 37 36 37 37 37 38 39 39 40 40 41 40 37 37 37 38 36 30 26 26 26 27 28 28 29 30 30 29 30 32 33 34
42 42 48 51 51 50 50 51 53 54 54 54 55 55 56 57 57 59 61 62 62 60 59 57 56 56 55 54 53 52 51 51 50 49 48 47 47 45 45 44 42 41 41 40 39 38 37 36 36 36 36 36 36 36 37 37 38 37 38 38 39 40 40 41 41 41 43 42 38 39 40 38 39 35 30 29 29 28 28 29 31 31 31 31 32 34 34 35
41 39 44 49 51 52 50 49 50 51 53 53 54 54 55 56 57 59 61 61 61 61 60 59 58 57 56 55 55 53 52 51 51 51 50 50 49 48 47 46 45 44 43 43 42 40 39 38 37 36 36 36 36 37 38 39 40 40 40 40 40 41 41 41 41 42 44 42 40 43 43 41 40 37 33 34 34 31 31 32 32 33 34 34 34 36 36 37
44 42 42 44 48 51 52 51 50 49 50 51 53 54 54 55 57 61 61 59 60 62 61 59 58 57 57 56 55 55 54 54 52 51 50 50 51 50 48 47 46 45 44 43 43 42 41 39 39 39 39 39 39 39 40 41 41 42 42 41 42 42 42 42 41 42 44 43 43 46 46 45 40 36 37 40 39 36 35 35 36 37 37 37 37 38 39 40
44 45 43 41 43 47 51 53 52 51 50 50 51 53 54 56 59 60 60 59 61 63 62 59 59 58 58 57 56 56 56 56 55 53 52 52 51 50 50 49 48 47 46 45 45 44 44 43 43 43 42 42 41 41 41 41 41 42 42 42 43 43 44 44 43 44 44 42 44 46 48 46 40 36 39 41 41 41 40 40 41 42 42 41 40 41 42 43
43 45 45 44 43 44 47 50 51 52 52 51 52 52 54 58 59 57 58 59 60 62 61 59 59 59 59 58 58 57 56 56 56 55 54 54 54 53 52 51 51 50 49 48 48 47 47 47 45 45 45 43 42 41 41 41 43 43 43 44 45 45 46 46 47 47 45 43 45 46 47 45 40 38 39 40 42 43 43 43 44 45 45 44 43 44 45 46
46 46 46 46 46 46 46 47 49 50 50 51 53 55 56 57 57 56 57 58 59 60 60 59 58 59 58 58 58 57 57 57 56 55 55 55 55 54 53 53 52 51 50 50 49 49 49 49 47 46 46 44 43 43 43 43 45 45 46 47 46 45 46 48 49 48 47 47 47 47 47 44 41 41 41 41 41 42 43 44 45 45 46 46 46 46 47 49
52 50 49 48 47 47 46 47 47 48 48 50 54 57 56 56 56 55 54 56 57 58 59 60 58 58 57 57 58 57 57 58 57 57 56 55 55 54 53 52 52 52 52 51 50 50 50 50 49 47 47 46 45 45 45 45 46 46 47 46 45 45 46 48 49 49 50 51 50 48 47 44 42 42 41 42 42 42 44 44 44 45 45 47 48 47 47 49
56 55 53 51 50 49 48 48 48 48 49 51 54 53 51 52 55 55 54 55 55 56 57 59 59 58 58 57 56 56 56 56 57 57 56 56 56 55 53 52 51 52 51 50 51 52 51 51 51 50 49 48 48 48 48 48 48 49 48 46 45 47 48 49 50 50 52 53 51 49 47 45 43 43 42 43 43 43 44 45 45 46 46 47 48 49 49 49
56 56 56 55 54 53 51 51 50 49 49 53 55 52 47 47 49 51 54 56 57 57 58 58 57 57 56 56 55 54 53 54 55 56 55 55 56 55 53 52 52 51 50 49 50 52 53 53 54 54 53 52 51 51 51 51 51 51 51 49 49 51 51 51 51 51 51 53 52 49 48 47 45 44 43 43 44 45 45 47 48 49 49 49 50 50 50 49
56 56 55 55 56 55 53 53 54 52 51 54 56 54 50 47 46 48 50 52 54 57 58 59 58 56 55 54 54 53 52 51 52 53 53 54 55 54 52 51 51 50 49 50 51 51 52 53 54 55 55 54 54 54 54 54 53 52 51 51 52 52 53 53 53 53 52 54 54 52 52 51 46 43 43 44 44 46 48 49 50 51 52 52 52 52 51 50
54 55 55 56 56 55 54 55 56 57 56 55 54 54 53 52 50 50 50 50 51 52 54 55 56 56 55 54 53 54 53 52 51 51 52 52 53 53 53 52 52 51 49 50 51 50 51 54 56 57 57 57 57 56 55 53 52 51 51 52 53 53 54 55 55 56 55 55 56 57 57 54 47 45 45 46 46 48 49 50 52 53 54 54 54 54 54 53
54 54 54 56 57 57 56 56 57 57 58 57 55 52 52 54 53 52 52 53 53 52 53 53 52 53 53 53 53 53 54 55 55 54 53 53 52 52 53 52 52 52 50 50 52 52 52 54 56 57 59 60 58 55 53 52 52 52 53 54 54 54 55 55 57 58 57 57 57 59 61 56 49 48 48 48 50 50 51 53 54 54 54 54 55 55 55 55
56 56 55 55 58 58 58 58 58 57 57 58 57 55 54 54 54 55 55 54 54 55 55 54 51 51 51 52 52 52 52 54 56 57 57 56 53 53 53 53 51 51 52 52 52 51 50 51 54 57 59 59 58 56 55 56 55 55 56 56 56 57 57 57 59 59 58 59 58 59 63 57 50 49 48 48 50 51 53 54 54 53 53 52 54 55 55 55
56 57 57 57 58 60 60 60 60 59 57 57 58 58 58 57 56 57 57 56 56 55 56 57 55 53 54 53 52 52 53 53 54 56 56 56 55 55 56 56 55 54 54 54 54 53 53 54 57 59 60 60 60 60 60 60 60 60 60 59 58 58 58 57 58 57 58 60 60 62 65 58 51 51 50 49 51 52 53 53 52 52 53 53 54 55 56 56
53 55 57 58 59 60 62 62 61 60 58 57 57 57 58 60 59 58 58 57 56 55 56 58 57 56 56 55 53 53 53 53 53 54 54 55 56 56 57 57 58 58 58 58 57 56 56 57 58 59 61 62 63 64 65 65 65 64 62 61 59 57 56 56 56 56 58 60 59 62 66 60 54 53 52 51 53 53 53 52 52 52 52 53 55 56 57 57
51 53 55 57 59 60 62 62 62 62 61 60 59 57 56 58 58 58 57 56 56 56 57 58 58 57 57 56 54 53 52 51 51 51 52 53 54 55 56 56 57 58 58 59 59 58 57 58 59 61 63 64 65 65 65 63 61 61 60 59 58 57 56 56 56 57 60 60 60 63 65 61 56 55 54 54 54 54 54 55 55 54 54 55 57 58 59 58
50 53 54 55 58 60 61 62 63 63 63 63 62 60 59 57 56 56 57 56 56 57 58 59 59 57 57 57 55 53 52 51 50 51 51 52 53 54 55 55 55 56 56 56 57 57 57 59 60 62 64 65 64 64 63 62 61 62 62 60 59 59 58 58 59 61 62 62 63 64 64 62 59 56 55 54 54 55 56 57 58 59 59 60 61 61 61 61
50 52 53 53 55 59 61 62 64 65 64 64 64 64 63 61 59 59 59 58 57 56 57 58 59 59 59 58 56 53 52 51 51 50 49 49 50 53 54 54 54 55 55 55 55 56 57 58 60 61 62 63 64 65 66 67 66 66 65 64 63 62 61 61 63 64 62 63 65 63 61 62 61 56 55 55 55 57 58 58 60 61 63 63 63 63 63 63
51 52 52 52 54 57 59 60 61 62 62 63 64 65 65 65 65 64 63 62 61 59 57 56 57 57 58 58 58 57 55 54 53 52 50 48 48 50 53 54 55 55 56 56 57 57 57 58 59 59 59 59 60 62 64 66 67 68 68 68 67 66 65 66 66 65 64 65 67 64 62 65 63 57 57 58 57 58 59 59 61 62 64 65 65 66 66 65
53 52 53 54 54 56 57 57 58 60 61 61 62 64 65 66 66 66 65 65 65 65 63 59 56 55 56 59 61 62 61 59 58 56 54 51 49 48 49 51 53 54 56 57 58 58 58 58 59 60 60 58 58 59 60 62 64 67 67 68 68 67 67 68 68 66 66 68 68 65 66 67 62 57 57 58 56 57 59 59 60 61 62 64 65 66 66 64
55 55 55 57 56 55 56 56 57 59 61 62 64 65 66 66 66 66 67 67 67 67 67 65 60 57 57 60 62 64 63 61 59 57 54 52 52 52 51 51 51 51 51 52 54 55 54 55 57 56 56 57 57 57 58 59 61 63 65 66 66 66 66 67 67 66 66 67 66 65 66 65 58 55 56 55 54 57 59 58 59 60 61 62 63 64 64 64
58 59 59 60 58 57 56 57 57 58 59 61 63 64 66 67 67 67 67 68 67 67 67 66 64 63 63 63 64 63 61 60 59 58 56 54 54 54 55 54 54 53 52 51 52 54 54 54 55 53 53 55 54 53 54 55 57 61 64 64 64 65 66 66 66 65 65 66 64 64 65 62 56 55 57 56 56 59 59 58 59 60 60 61 62 63 63 63
61 62 63 64 63 61 60 59 58 59 60 60 61 61 62 63 64 64 65 66 66 67 66 65 65 67 68 68 66 62 60 61 60 59 59 57 55 55 56 56 55 55 56 56 56 57 57 58 57 56 57 57 55 54 54 52 53 57 59 58 58 61 64 65 66 66 66 66 66 67 66 63 59 59 60 59 58 59 59 59 60 60 61 61 61 61 62 63
Wind_Direction
194 196 196 195 193 191 187 183 184 188 189 188 188 190 189 186 183 182 183 184 184 183 183 183 182 182 183 183 184 184 183 182 181 181 182 182 181 181 182 182 182 182 183 183 184 186 190 192 194 197 203 208 211 217 221 224 227 231 237 238 236 238 239 230 222 216 200 186 187 189 194 190 184 184 187 198 202 209 218 226 225 21 33 36 38 38 33 31
193 195 195 195 193 190 188 186 186 189 189 188 188 190 190 186 184 182 182 183 183 183 182 182 183 183 184 185 185 186 185 184 184 184 185 184 184 185 185 185 186 186 187 188 189 191 194 197 200 205 209 214 219 226 229 232 235 238 243 242 241 242 240 236 232 229 220 206 198 199 204 201 203 210 216 224 221 221 228 235 239 268 358 21 23 30 31 29
193 194 194 194 193 190 188 188 188 188 187 187 187 188 188 187 185 183 183 182 181 182 181 181 183 184 184 185 186 187 187 187 187 187 187 187 187 188 188 189 189 190 192 193 194 196 199 201 204 209 215 219 224 230 233 237 239 240 244 245 243 241 238 238 235 232 228 220 211 205 210 213 213 226 241 246 245 241 237 242 246 260 318 357 9 14 23 28
193 193 193 193 192 190 189 189 188 187 186 186 186 186 187 187 186 185 184 182 180 180 181 181 182 184 185 185 187 188 188 189 189 189 190 190 191 191 191 192 193 194 196 198 200 202 205 208 210 212 217 221 226 231 236 240 242 241 243 243 239 235 234 237 234 227 226 227 223 212 214 222 221 235 254 263 261 253 244 247 252 256 301 331 351 4 13 23
193 193 193 193 192 190 189 188 187 186 187 187 187 185 185 186 186 185 184 183 181 180 180 181 181 183 185 185 187 188 190 191 191 191 192 193 193 194 195 196 197 199 200 203 206 208 211 214 216 218 220 223 227 232 237 240 241 240 241 239 234 233 235 237 236 230 225 228 230 221 218 224 231 242 259 272 270 260 248 248 259 265 279 315 335 355 9 16
194 192 192 193 192 192 190 188 186 187 188 189 188 186 185 185 186 185 184 184 184 183 183 183 183 184 184 186 187 188 190 191 192 193 194 195 196 197 198 199 201 203 205 207 210 213 216 218 219 222 224 226 229 232 235 237 239 240 239 238 233 233 236 237 236 233 229 230 231 228 224 227 236 248 262 271 266 259 251 244 256 272 282 305 327 347 7 11
194 193 193 193 192 192 192 188 187 188 189 189 188 187 186 186 186 186 186 186 186 187 186 186 186 187 187 187 188 189 190 191 193 194 195 197 198 200 201 203 205 207 209 211 213 216 218 221 223 225 226 229 231 231 235 237 238 238 236 235 231 229 233 232 232 231 231 233 232 231 230 234 242 253 268 269 255 254 250 240 245 261 281 306 326 341 358 3
195 194 195 194 192 192 193 190 188 189 189 189 188 188 188 188 189 189 189 189 189 190 190 189 189 190 191 192 191 191 192 192 193 195 196 197 199 201 203 205 208 210 212 214 216 218 220 222 225 227 228 230 230 230 235 236 236 236 233 233 229 227 230 229 229 229 231 233 233 232 233 241 250 259 270 264 250 251 246 235 241 253 275 299 321 333 344 352
195 195 196 195 193 192 193 192 190 191 190 190 190 190 189 190 191 191 192 192 193 194 194 193 193 193 194 195 195 195 196 195 196 197 198 199 200 202 204 206 209 211 213 215 217 219 222 224 225 226 227 229 229 230 235 236 235 234 231 231 229 227 228 228 228 228 230 232 232 232 234 244 253 262 267 258 248 250 243 232 236 255 279 294 310 326 334 339
196 195 195 196 195 193 194 193 192 192 192 192 192 192 192 191 192 194 195 195 196 196 196 196 196 196 197 196 197 199 199 198 199 200 201 202 202 204 206 208 210 212 213 215 216 218 220 221 222 223 225 228 230 231 235 235 234 230 227 229 228 225 226 226 227 228 230 231 231 231 236 244 250 258 261 245 242 248 245 238 235 249 277 299 311 319 326 330
196 196 195 196 196 195 195 196 194 194 193 194 194 194 194 194 195 196 197 198 198 198 198 198 198 198 198 198 199 201 201 201 202 202 203 204 205 207 208 209 211 212 214 215 216 216 218 219 221 224 225 228 231 232 234 234 231 227 226 228 227 225 225 225 226 227 228 229 230 230 235 242 244 251 248 227 237 249 252 250 251 255 269 296 310 314 317 323
197 197 195 195 197 197 196 197 197 195 195 196 196 196 195 196 198 199 199 200 201 200 200 200 200 199 199 199 201 202 202 203 203 203 204 205 206 208 209 210 211 213 214 215 216 216 218 220 223 227 228 229 231 231 232 231 229 226 225 227 227 226 225 226 226 226 227 227 228 230 233 239 241 241 233 229 237 245 251 257 266 273 281 294 303 306 309 316
197 197 196 196 196 197 198 198 198 197 197 198 198 197 197 199 201 201 201 202 203 203 203 203 202 201 201 202 203 203 204 204 204 204 204 205 206 207 209 210 211 212 214 215 216 217 219 221 224 227 228 228 228 228 228 226 226 226 225 225 226 226 225 226 227 226 227 226 226 229 231 234 236 231 227 232 236 237 245 255 266 276 285 292 297 300 303 310
199 198 197 197 196 197 198 198 199 199 200 201 201 199 198 201 203 203 204 204 205 205 206 206 205 204 203 203 204 204 206 205 205 205 204 205 205 206 207 208 210 211 213 214 216 218 220 223 225 226 224 224 225 225 224 223 223 224 223 223 224 225 226 227 228 226 227 226 226 228 229 231 232 228 229 233 237 240 246 253 262 273 281 288 292 295 301 307
200 199 198 198 197 198 198 198 199 199 201 203 203 201 200 203 205 205 206 206 207 207 208 208 208 206 205 205 205 205 207 206 205 205 204 205 205 205 206 208 209 210 212 214 217 219 222 224 225 224 222 222 223 222 222 223 223 223 223 223 224 225 226 228 228 225 226 227 227 229 227 229 230 227 229 232 236 243 249 256 264 272 279 285 286 289 295 302
201 200 199 199 198 198 199 199 199 199 202 204 205 202 201 205 206 206 208 208 209 209 210 211 210 208 207 207 206 205 207 208 207 206 205 205 206 206 207 209 210 212 214 216 219 221 223 224 224 222 221 221 222 221 222 222 222 223 224 225 225 226 226 229 230 226 225 228 231 230 226 227 230 229 231 232 235 242 249 258 264 269 274 277 281 286 289 294
203 201 200 200 199 199 200 200 199 199 201 204 206 204 202 205 208 208 209 210 211 211 212 213 211 210 209 208 207 207 208 209 208 208 207 207 207 207 209 211 212 214 216 218 220 222 223 224 224 223 222 222 223 223 223 224 224 225 226 227 227 228 227 228 231 228 227 229 233 232 226 225 230 232 234 234 238 244 251 257 262 265 266 266 271 279 284 288
204 203 202 201 201 201 200 201 201 200 201 203 206 205 203 206 208 209 210 211 212 213 214 214 213 212 211 209 210 211 211 211 210 209 209 209 209 209 210 212 214 215 217 219 221 222 223 224 224 224 224 225 226 226 226 227 226 227 228 230 230 230 229 228 229 230 231 233 236 235 229 227 230 234 237 239 241 246 252 258 261 262 262 262 262 267 276 283
205 204 203 202 202 202 202 202 202 202 202 203 205 206 205 206 209 210 211 212 214 215 215 215 214 214 213 211 212 213 213 213 212 211 211 211 211 212 213 214 216 217 219 220 222 223 224 225 226 226 226 227 227 228 228 227 227 228 229 232 233 231 231 232 230 230 234 238 239 237 231 229 232 234 239 242 243 247 254 258 261 260 260 261 261 263 269 276
205 204 204 203 202 203 203 203 203 203 203 203 205 207 206 207 210 211 212 214 215 216 216 216 216 216 215 213 214 215 215 215 214 213 213 213 213 214 215 217 218 220 221 222 223 224 225 226 227 228 227 228 228 228 229 228 229 230 230 232 234 233 232 232 231 230 234 237 239 239 233 230 232 235 240 244 245 247 252 257 259 260 261 263 265 268 270 274
206 206 205 204 204 203 203 203 203 204 204 204 205 207 208 209 211 212 214 215 216 217 217 217 217 217 217 216 216 216 217 217 217 217 216 215 216 217 218 219 220 222 223 224 225 226 227 228 228 229 229 229 230 231 232 232 233 233 232 232 235 236 234 232 232 233 236 238 239 241 239 232 232 236 240 246 249 248 250 253 255 257 259 264 268 272 275 279
208 207 207 206 205 205 204 204 204 204 204 205 206 207 209 210 211 213 214 216 217 218 218 218 217 218 218 218 218 219 219 219 219 219 219 219 219 220 221 221 222 223 224 226 226 227 228 229 229 230 230 231 232 233 234 235 235 235 235 233 234 236 237 235 234 236 240 241 240 243 244 236 234 238 239 244 248 249 253 255 256 257 258 261 265 270 277 282
211 209 209 208 207 206 206 205 205 205 205 205 206 207 209 210 211 212 214 215 216 217 218 218 218 219 219 219 219 220 221 221 221 221 220 221 222 222 223 224 225 226 226 228 228 229 230 231 231 232 232 233 233 234 235 236 237 237 237 235 234 236 238 238 238 238 241 244 244 245 247 240 236 240 240 242 245 247 253 258 260 262 263 264 266 270 275 279
213 212 211 210 209 208 208 207 207 206 206 206 207 208 209 210 212 213 214 215 216 217 218 218 219 219 220 220 220 221 222 222 222 223 222 223 224 224 225 226 227 228 228 229 230 230 231 232 233 234 235 235 235 236 237 238 238 239 239 238 237 236 238 240 241 242 243 246 246 247 250 245 237 240 242 243 247 247 250 255 260 263 264 266 269 272 275 278
214 214 213 213 212 210 209 209 209 208 208 208 208 209 210 211 213 214 215 216 216 217 217 218 219 220 221 221 221 222 223 224 224 225 225 226 226 226 228 228 229 230 230 231 231 231 232 234 235 236 237 238 238 238 239 239 240 241 241 240 240 239 238 240 242 243 244 246 248 250 253 249 238 240 243 244 248 249 250 254 257 260 264 266 269 271 274 277
215 215 215 215 214 213 212 211 211 210 210 210 210 210 211 212 214 215 216 218 218 218 218 218 219 220 221 223 223 223 225 226 226 227 227 228 228 229 231 231 231 233 233 233 234 233 234 236 237 238 239 240 241 242 242 242 242 242 242 241 242 241 241 242 243 244 245 246 249 252 256 256 243 237 244 247 248 249 251 253 255 259 264 268 271 273 275 276
215 216 217 217 216 215 215 214 213 212 213 213 212 212 212 213 215 216 218 220 220 220 220 221 221 221 222 224 225 225 227 227 229 230 230 231 232 232 234 234 234 236 236 237 237 237 238 239 240 241 241 242 242 243 244 244 244 243 243 242 243 244 244 244 244 246 247 248 249 251 256 261 253 237 241 248 250 251 251 253 255 257 261 266 271 275 277 278
217 217 217 218 218 217 217 216 216 215 215 215 215 215 215 214 215 216 218 221 221 221 222 223 223 223 224 226 226 227 228 229 231 232 232 234 235 235 237 237 237 239 239 239 239 238 239 240 241 241 241 241 242 242 243 244 245 245 245 244 245 246 246 246 246 247 249 249 250 251 255 261 261 250 245 248 248 250 253 256 258 258 260 263 269 272 275 277
219 220 219 218 219 220 219 219 218 217 217 217 217 218 218 218 217 217 218 220 221 222 223 224 224 225 226 228 228 229 229 230 232 233 233 235 236 236 238 238 238 240 241 242 241 241 240 241 242 242 242 242 242 244 245 246 248 248 249 248 247 247 247 247 247 248 250 251 252 253 253 259 265 263 257 253 249 249 253 256 258 260 262 263 266 269 271 274
214 218 221 219 219 220 221 221 221 220 219 218 219 219 220 220 220 220 220 220 222 223 223 225 226 226 228 229 231 231 231 232 234 234 234 236 236 236 238 238 239 240 242 243 244 243 243 243 244 246 246 246 245 247 248 249 250 251 251 252 251 250 249 249 249 250 251 252 254 256 255 258 263 264 263 261 257 254 255 256 258 261 263 264 265 267 269 271
211 214 221 221 219 219 220 221 221 221 221 220 220 221 221 222 222 223 223 222 224 225 224 225 227 227 229 231 232 233 234 235 235 236 236 237 238 238 238 239 240 241 242 244 245 246 245 245 246 248 249 249 248 248 248 249 250 251 251 252 252 253 252 252 251 251 252 253 255 257 257 256 259 264 269 269 266 263 261 261 262 264 265 265 267 268 268 270
216 218 222 223 221 220 220 220 221 221 222 222 222 222 223 223 224 225 225 224 226 228 227 226 228 229 230 231 232 233 234 235 236 237 237 238 239 239 240 241 242 242 243 245 247 248 248 247 247 247 247 248 247 247 247 248 250 251 251 253 254 256 256 256 255 254 253 253 254 256 257 257 258 264 269 270 272 272 271 271 271 270 269 269 270 270 270 271
219 220 221 222 221 222 221 221 222 222 223 223 224 224 224 226 226 226 226 226 228 229 228 228 229 230 231 231 232 232 233 234 235 236 237 237 238 239 239 240 241 242 243 244 245 246 247 246 246 247 247 247 248 249 250 250 251 252 253 254 255 256 257 258 257 256 255 254 255 257 258 259 260 262 265 269 273 276 276 277 277 277 276 275 275 274 273 272
218 219 220 221 221 222 223 223 223 223 224 225 226 226 226 227 228 228 229 229 230 231 230 230 230 230 231 231 232 232 233 235 235 235 236 236 237 238 239 240 242 243 243 243 244 246 247 248 248 249 248 248 249 250 250 250 250 251 251 252 253 255 258 259 259 258 258 256 256 256 257 260 263 264 264 267 270 273 276 277 277 278 280 281 281 281 280 280
219 218 218 220 222 223 225 226 225 225 224 226 227 228 228 229 229 229 230 231 232 233 233 232 232 232 232 232 233 233 234 235 236 237 237 237 238 239 240 241 242 243 244 245 247 248 249 250 250 250 250 250 250 249 249 249 250 251 251 252 255 257 259 259 260 260 261 259 257 257 258 260 263 265 265 267 268 271 273 274 276 279 281 283 283 283 284 284
222 220 218 218 220 223 224 225 228 227 224 225 227 229 231 231 231 230 230 232 232 233 234 234 233 233 234 234 234 235 236 237 238 238 239 239 239 240 240 242 243 244 245 247 248 248 248 249 248 248 249 249 250 250 249 249 250 251 252 255 257 258 257 258 259 260 260 260 259 259 259 261 262 264 266 267 269 270 272 274 276 278 280 280 282 283 283 284
223 223 222 219 219 220 220 222 226 228 228 227 228 230 230 230 230 231 231 232 233 233 234 235 235 234 235 235 236 236 237 238 238 239 240 240 240 241 242 243 244 245 246 248 248 248 248 248 247 247 247 247 248 249 249 249 250 252 254 255 255 255 255 255 257 257 259 260 261 261 262 262 261 262 264 265 267 269 272 273 274 274 276 277 279 281 281 282
221 223 224 222 221 220 220 220 222 224 227 229 229 228 227 226 227 229 231 232 233 233 234 235 235 234 234 234 235 235 235 236 237 239 240 241 241 241 242 243 244 245 246 247 247 248 248 249 248 247 247 247 247 248 249 251 252 253 254 254 253 253 255 255 256 258 259 261 262 263 263 261 260 261 263 264 266 267 268 270 271 272 274 275 275 276 278 280
217 217 217 217 218 219 219 220 220 220 222 226 228 228 227 227 227 228 230 231 233 233 234 236 236 236 235 235 234 235 234 234 235 237 238 240 241 241 241 242 243 243 244 245 245 247 248 248 248 248 247 247 247 248 250 252 253 253 253 253 253 254 256 256 257 258 259 260 262 262 261 260 261 262 264 264 265 265 266 267 269 272 273 274 275 276 277 278
219 216 213 212 212 213 214 216 218 218 219 222 225 227 228 229 230 230 230 231 233 234 235 236 238 238 237 237 236 236 236 236 235 235 236 238 239 240 239 239 239 239 240 241 242 243 245 246 246 247 246 246 247 249 250 250 250 250 251 251 252 253 255 256 256 257 257 258 260 260 260 260 261 262 263 264 264 264 266 267 269 270 272 274 276 277 278 278
225 222 220 217 213 211 210 212 214 215 216 218 219 221 224 227 228 230 231 231 232 234 235 236 238 238 238 237 237 237 237 237 236 235 236 236 236 237 237 237 237 237 238 239 240 241 243 245 245 245 245 246 248 249 249 248 247 247 248 249 251 251 252 253 253 255 255 256 257 258 260 261 261 261 262 265 266 268 268 268 268 269 271 273 275 276 276 277
230 228 228 227 223 218 215 213 212 212 213 215 217 219 221 222 224 226 228 230 231 233 235 236 237 239 241 239 237 236 237 237 237 237 236 236 236 237 238 237 238 238 238 240 241 241 243 245 246 246 246 247 248 248 248 248 248 247 247 248 249 250 250 251 253 254 254 255 256 258 260 263 265 265 265 266 266 267 268 268 269 271 272 273 274 274 275 276
233 232 232 232 230 228 226 222 217 214 213 213 215 217 220 221 222 223 225 228 229 232 235 236 235 237 240 241 240 240 240 239 239 238 238 238 237 237 238 238 238 238 239 239 240 240 241 243 244 246 247 247 247 248 249 249 250 249 250 250 249 250 251 252 253 253 253 254 256 258 260 265 268 268 268 267 266 266 266 268 271 273 274 274 274 275 275 276
234 234 233 233 232 233 232 229 224 221 218 215 214 215 217 220 222 223 225 227 228 229 231 235 235 235 237 239 242 244 244 243 242 240 239 238 238 238 239 239 239 239 240 240 241 242 243 244 245 246 247 247 247 248 248 250 251 252 252 252 251 252 252 253 254 255 255 256 259 260 262 266 268 267 266 266 266 267 268 269 270 271 272 273 274 274 275 276
235 235 234 234 234 234 234 233 232 229 227 225 221 217 216 218 220 222 224 226 228 229 230 233 235 235 235 237 238 242 245 246 246 244 241 239 238 237 238 240 240 241 241 241 242 243 244 245 246 246 247 248 249 250 252 254 256 256 256 255 255 255 255 256 257 257 258 260 261 262 264 267 267 266 266 265 266 268 269 270 270 270 270 270 271 272 274 276
237 236 236 236 236 236 235 235 235 234 233 233 230 225 221 219 217 219 221 224 227 230 232 234 235 234 234 235 235 238 242 244 245 245 244 242 240 238 238 239 240 242 242 242 242 242 243 245 245 246 248 249 251 252 254 254 255 256 255 255 255 255 255 256 255 256 259 261 261 262 266 268 266 266 267 268 268 269 269 270 271 271 271 271 271 272 273 275
238 237 238 238 238 237 236 235 236 236 237 237 235 232 230 226 222 221 221 221 224 227 229 231 232 232 233 234 235 235 236 237 239 242 244 244 243 241 240 241 241 242 243 244 244 243 243 243 244 246 247 248 250 251 252 252 253 254 255 255 255 256 256 256 257 259 261 261 261 263 266 267 267 267 268 268 268 268 269 270 271 272 273 274 274 275 275 274
238 238 238 240 239 238 237 237 237 237 237 238 237 236 235 233 230 228 226 224 224 226 227 227 228 230 232 233 233 233 232 233 235 239 242 244 245 245 244 243 243 243 244 246 247 248 247 246 245 245 246 247 249 251 252 253 254 255 255 255 256 256 256 258 260 262 262 262 263 265 265 265 266 266 267 267 268 268 269 270 271 273 274 275 276 275 275 274
239 239 239 240 240 240 239 237 237 236 236 236 236 236 236 236 235 234 233 231 230 229 230 229 227 228 229 229 230 232 233 234 236 239 241 242 243 244 245 246 247 247 247 248 250 252 253 252 250 249 248 246 247 251 252 253 254 255 256 256 257 257 258 259 260 261 261 261 264 265 264 265 267 268 268 268 269 269 268 268 269 270 271 272 273 273 274 275
240 240 240 241 240 240 240 239 237 236 236 236 235 235 236 236 236 236 236 236 236 234 234 233 230 229 229 228 228 230 232 235 237 238 238 238 238 239 241 244 246 247 248 249 251 252 253 254 253 254 252 249 248 250 252 252 254 255 255 257 258 259 260 261 261 261 261 263 264 265 264 266 269 270 268 268 268 267 266 267 267 267 267 268 269 270 272 274
241 240 240 241 240 239 240 240 239 238 237 236 236 236 236 236 236 237 237 237 237 237 237 236 235 234 234 233 231 230 231 235 236 235 234 234 234 235 236 238 238 239 241 242 245 247 249 250 251 253 253 252 250 251 252 252 253 253 253 256 260 261 262 262 263 263 264 265 265 264 265 267 270 268 267 267 267 266 267 268 268 267 266 266 266 268 270 272
243 242 241 240 240 238 238 239 240 239 238 237 237 237 237 237 237 238 238 238 237 238 238 238 237 237 237 236 235 233 234 236 236 233 232 231 231 232 233 234 234 235 236 237 239 243 247 250 253 254 255 255 254 253 253 252 251 251 253 257 259 260 261 262 263 264 264 265 265 265 266 268 267 266 266 267 267 267 267 267 266 266 265 265 266 268 270 271
Height
5732 5735 5739 5742 5745 5749 5753 5757 5761 5765 5768 5771 5775 5778 5781 5783 5786 5789 5792 5794 5797 5800 5803 5805 5808 5811 5815 5818 5821 5824 5827 5830 5833 5835 5837 5840 5842 5845 5848 5850 5852 5854 5856 5858 5860 5862 5864 5866 5867 5869 5870 5872 5873 5874 5876 5877 5878 5879 5880 5881 5882 5883 5884 5885 5885 5885 5886 5887 5888 5888 5889 5890 5891 5891 5892 5893 5893 5893 5894 5894 5894 5894 5894 5894 5894 5894 5894 5894
5731 5734 5737 5741 5744 5748 5752 5756 5759 5763 5767 5770 5774 5777 5780 5783 5785 5788 5791 5794 5796 5799 5801 5804 5808 5810 5814 5817 5820 5823 5826 5829 5832 5834 5836 5839 5842 5844 5847 5849 5851 5853 5855 5857 5859 5861 5863 5865 5866 5868 5869 5870 5872 5873 5874 5876 5877 5878 5879 5880 5882 5883 5884 5884 5884 5885 5885 5886 5887 5888 5888 5889 5890 5891 5891 5892 5893 5893 5893 5894 5894 5894 5894 5894 5894 5894 5894 5893
5729 5732 5736 5739 5742 5746 5750 5754 5758 5761 5765 5769 5772 5776 5779 5782 5785 5788 5790 5793 5796 5798 5801 5803 5807 5810 5813 5816 5819 5823 5826 5828 5831 5833 5835 5838 5840 5843 5845 5848 5850 5852 5854 5856 5858 5860 5862 5863 5865 5867 5868 5869 5870 5872 5873 5874 5876 5877 5878 5879 5881 5882 5882 5882 5883 5884 5885 5885 5886 5887 5888 5888 5889 5890 5891 5891 5892 5892 5893 5893 5893 5893 5894 5894 5894 5894 5894 5893
5727 5730 5734 5737 5741 5744 5749 5753 5756 5760 5764 5767 5771 5775 5778 5782 5785 5787 5790 5792 5795 5797 5800 5802 5806 5809 5812 5815 5818 5822 5825 5827 5829 5832 5835 5837 5839 5842 5844 5846 5849 5851 5853 5855 5857 5859 5860 5862 5864 5866 5867 5868 5869 5870 5871 5873 5874 5875 5877 5879 5880 5881 5881 5881 5882 5884 5884 5885 5885 5886 5887 5887 5888 5889 5890 5891 5891 5892 5892 5892 5892 5893 5893 5893 5893 5893 5893 5893
5725 5729 5732 5735 5739 5743 5747 5751 5755 5759 5762 5766 5770 5774 5777 5781 5784 5786 5789 5792 5794 5796 5799 5802 5805 5808 5811 5814 5817 5820 5823 5826 5828 5831 5833 5836 5838 5840 5843 5845 5847 5849 5852 5854 5856 5857 5859 5861 5863 5864 5866 5867 5868 5869 5870 5872 5873 5874 5876 5878 5879 5879 5879 5880 5881 5882 5883 5884 5884 5885 5886 5887 5888 5888 5889 5890 5890 5891 5891 5892 5891 5892 5892 5893 5893 5893 5893 5892
5723 5727 5730 5733 5737 5741 5745 5749 5753 5757 5761 5765 5769 5772 5776 5780 5783 5786 5788 5791 5793 5796 5798 5801 5804 5807 5810 5813 5816 5819 5821 5824 5827 5830 5832 5834 5837 5839 5841 5844 5846 5848 5850 5852 5854 5856 5858 5859 5861 5863 5864 5865 5866 5868 5869 5870 5871 5873 5875 5876 5878 5878 5878 5879 5880 5881 5882 5883 5883 5884 5885 5886 5887 5887 5888 5889 5889 5890 5891 5891 5891 5891 5891 5892 5892 5892 5892 5892
5721 5724 5727 5731 5735 5739 5743 5747 5751 5755 5759 5763 5767 5771 5774 5778 5781 5784 5787 5790 5792 5795 5797 5800 5803 5806 5809 5812 5814 5817 5820 5823 5826 5828 5831 5833 5835 5838 5840 5842 5845 5847 5849 5851 5853 5854 5856 5858 5859 5861 5862 5863 5865 5867 5867 5868 5870 5871 5874 5875 5876 5877 5877 5878 5879 5880 5881 5881 5882 5883 5884 5885 5886 5886 5887 5888 5888 5889 5890 5890 5891 5891 5891 5891 5891 5892 5892 5892
5719 5722 5725 5729 5732 5736 5741 5745 5749 5753 5757 5761 5765 5769 5773 5776 5780 5783 5786 5789 5791 5794 5797 5799 5802 5805 5808 5810 5813 5816 5818 5821 5824 5826 5829 5831 5834 5836 5839 5841 5843 5845 5847 5849 5851 5853 5854 5856 5858 5859 5861 5862 5864 5865 5865 5867 5868 5870 5872 5873 5874 5875 5876 5877 5878 5879 5880 5880 5881 5882 5883 5884 5884 5885 5886 5887 5887 5888 5889 5889 5890 5890 5890 5891 5891 5891 5891 5891
5717 5720 5724 5727 5730 5734 5739 5743 5747 5751 5755 5759 5763 5767 5771 5774 5778 5781 5784 5787 5790 5793 5795 5798 5801 5803 5806 5809 5812 5814 5817 5820 5822 5824 5827 5829 5832 5834 5837 5839 5841 5843 5845 5847 5849 5851 5853 5855 5857 5858 5860 5861 5862 5863 5863 5865 5867 5869 5871 5871 5872 5873 5874 5876 5877 5878 5878 5879 5880 5881 5882 5883 5883 5884 5885 5886 5886 5887 5888 5888 5889 5889 5889 5890 5890 5890 5890 5890
5715 5718 5721 5725 5729 5732 5736 5741 5745 5749 5754 5757 5761 5765 5769 5772 5776 5779 5782 5785 5788 5791 5794 5797 5799 5802 5804 5808 5811 5813 5815 5818 5820 5822 5825 5827 5830 5832 5835 5837 5839 5842 5843 5845 5847 5849 5851 5853 5855 5856 5858 5859 5860 5861 5862 5863 5865 5867 5868 5869 5870 5872 5873 5874 5875 5876 5877 5878 5879 5880 5881 5881 5882 5883 5884 5885 5885 5885 5886 5887 5888 5888 5888 5889 5889 5889 5889 5889
5712 5715 5719 5723 5727 5731 5735 5739 5743 5747 5751 5755 5759 5763 5766 5770 5773 5777 5780 5783 5786 5789 5792 5795 5798 5800 5803 5806 5808 5810 5813 5815 5818 5820 5823 5825 5828 5830 5833 5835 5837 5840 5841 5843 5845 5847 5849 5851 5852 5854 5855 5857 5858 5859 5860 5861 5863 5865 5866 5866 5868 5870 5871 5873 5874 5875 5876 5877 5878 5879 5880 5880 5881 5882 5883 5884 5884 5885 5885 5886 5887 5887 5888 5888 5888 5888 5888 5888
5709 5712 5717 5721 5725 5729 5733 5737 5741 5745 5749 5753 5756 5760 5764 5767 5771 5774 5778 5781 5784 5787 5790 5793 5796 5799 5802 5804 5806 5808 5811 5813 5816 5819 5821 5824 5826 5828 5831 5833 5835 5837 5839 5841 5843 5845 5847 5848 5850 5852 5853 5855 5856 5857 5858 5860 5861 5863 5864 5865 5867 5868 5870 5871 5872 5873 5874 5875 5876 5877 5879 5879 5880 5882 5882 5883 5883 5884 5884 5885 5885 5886 5887 5887 5887 5887 5887 5887
5706 5710 5714 5718 5722 5727 5731 5735 5739 5743 5747 5750 5754 5758 5761 5765 5768 5772 5775 5779 5782 5785 5788 5791 5794 5797 5800 5802 5804 5807 5809 5812 5814 5817 5819 5822 5824 5826 5829 5831 5833 5835 5837 5839 5841 5843 5845 5846 5848 5850 5851 5852 5853 5855 5856 5858 5859 5860 5862 5864 5865 5867 5868 5869 5870 5872 5873 5874 5875 5876 5877 5878 5879 5880 5881 5881 5882 5883 5883 5884 5884 5884 5885 5885 5886 5886 5886 5886
5704 5708 5712 5716 5720 5724 5728 5732 5737 5741 5744 5748 5751 5755 5759 5763 5766 5770 5773 5776 5779 5783 5786 5789 5792 5795 5797 5800 5803 5805 5808 5810 5813 5815 5817 5819 5822 5824 5826 5829 5831 5833 5835 5837 5839 5841 5842 5844 5846 5848 5849 5850 5851 5853 5854 5856 5857 5858 5860 5862 5863 5865 5866 5867 5868 5870 5871 5872 5873 5875 5876 5877 5878 5879 5880 5880 5881 5882 5882 5883 5883 5883 5884 5884 5884 5884 5884 5884
5702 5705 5709 5713 5716 5720 5724 5729 5733 5737 5741 5745 5749 5752 5756 5760 5764 5767 5770 5774 5777 5780 5783 5786 5789 5792 5795 5798 5801 5803 5806 5808 5810 5813 5815 5817 5820 5822 5824 5826 5828 5830 5833 5835 5837 5839 5840 5842 5844 5845 5847 5848 5849 5851 5852 5854 5855 5857 5858 5860 5861 5863 5864 5865 5866 5868 5869 5870 5871 5873 5874 5875 5876 5878 5878 5879 5880 5880 5881 5881 5882 5882 5882 5882 5883 5883 5883 5883
5699 5702 5706 5709 5713 5717 5721 5725 5729 5733 5738 5741 5746 5749 5753 5757 5761 5764 5768 5771 5774 5778 5781 5784 5787 5790 5793 5795 5798 5801 5804 5806 5808 5811 5813 5815 5817 5820 5822 5824 5826 5828 5830 5832 5834 5836 5838 5840 5841 5843 5844 5846 5847 5848 5850 5852 5853 5855 5856 5858 5859 5861 5862 5863 5865 5866 5867 5868 5869 5871 5873 5874 5875 5875 5876 5877 5878 5879 5879 5880 5880 5880 5881 5881 5881 5881 5881 5881
5696 5699 5702 5706 5710 5714 5718 5722 5725 5730 5734 5738 5742 5746 5750 5754 5758 5761 5765 5768 5772 5775 5778 5781 5785 5787 5790 5793 5797 5799 5801 5803 5806 5808 5811 5813 5815 5817 5820 5822 5824 5826 5828 5830 5832 5834 5836 5837 5839 5841 5842 5843 5845 5847 5849 5850 5852 5853 5854 5855 5857 5859 5860 5862 5862 5864 5865 5866 5867 5869 5871 5872 5872 5873 5874 5876 5876 5877 5878 5878 5878 5879 5879 5879 5879 5879 5879 5879
5693 5697 5700 5703 5707 5711 5715 5718 5722 5726 5730 5734 5739 5743 5747 5751 5755 5758 5762 5765 5769 5772 5775 5778 5782 5784 5788 5792 5795 5797 5799 5801 5803 5806 5808 5811 5813 5815 5817 5819 5822 5824 5826 5828 5830 5831 5833 5835 5837 5838 5840 5842 5844 5846 5847 5848 5850 5851 5852 5853 5855 5857 5858 5860 5861 5862 5863 5864 5865 5867 5869 5870 5870 5871 5872 5874 5874 5875 5876 5876 5877 5877 5877 5877 5878 5878 5878 5878
5690 5694 5697 5701 5704 5708 5712 5715 5719 5723 5727 5731 5735 5740 5743 5747 5751 5755 5758 5762 5766 5769 5772 5776 5779 5782 5786 5789 5792 5794 5796 5798 5801 5804 5806 5808 5810 5813 5815 5817 5819 5821 5823 5825 5827 5829 5831 5833 5835 5837 5839 5840 5842 5844 5845 5845 5847 5848 5850 5852 5853 5854 5856 5858 5859 5861 5861 5862 5863 5865 5866 5867 5868 5870 5870 5871 5872 5873 5874 5874 5874 5875 5875 5875 5876 5876 5876 5876
5687 5691 5694 5698 5701 5705 5709 5712 5716 5721 5725 5729 5733 5736 5740 5744 5748 5751 5755 5759 5762 5766 5770 5773 5777 5779 5783 5786 5788 5791 5794 5796 5799 5801 5803 5806 5808 5810 5812 5815 5817 5819 5821 5823 5825 5827 5829 5830 5832 5834 5836 5837 5839 5840 5841 5843 5844 5846 5848 5849 5850 5852 5854 5855 5857 5858 5858 5859 5861 5862 5863 5865 5866 5868 5868 5869 5870 5872 5872 5872 5872 5872 5873 5873 5874 5874 5874 5874
5684 5688 5691 5695 5698 5701 5705 5709 5713 5717 5722 5726 5730 5733 5737 5741 5745 5749 5753 5756 5759 5763 5766 5769 5773 5776 5779 5783 5786 5788 5791 5794 5796 5799 5801 5803 5805 5808 5810 5812 5814 5816 5818 5820 5822 5824 5826 5828 5830 5831 5833 5835 5836 5837 5839 5841 5843 5844 5846 5847 5848 5849 5851 5852 5854 5855 5856 5856 5858 5859 5860 5863 5864 5865 5866 5866 5868 5870 5870 5870 5870 5871 5871 5872 5872 5871 5871 5872
5681 5684 5688 5692 5695 5698 5702 5706 5710 5714 5718 5722 5727 5731 5734 5738 5742 5746 5749 5752 5756 5760 5762 5766 5769 5772 5776 5779 5783 5785 5788 5791 5794 5796 5798 5801 5803 5805 5807 5810 5811 5813 5816 5818 5820 5822 5824 5825 5827 5828 5830 5832 5833 5835 5837 5838 5840 5841 5843 5845 5846 5847 5848 5849 5851 5852 5852 5854 5856 5856 5857 5860 5862 5863 5864 5864 5865 5867 5867 5867 5868 5868 5869 5870 5869 5869 5869 5869
5678 5682 5685 5689 5692 5696 5699 5703 5707 5710 5714 5718 5723 5727 5731 5735 5738 5742 5745 5748 5752 5755 5759 5762 5766 5768 5772 5775 5779 5782 5785 5788 5790 5793 5795 5798 5800 5802 5804 5807 5808 5810 5813 5815 5817 5819 5821 5822 5824 5825 5827 5829 5830 5832 5834 5835 5837 5838 5840 5842 5843 5844 5845 5846 5848 5849 5850 5851 5853 5853 5853 5857 5860 5860 5861 5862 5863 5865 5865 5865 5866 5866 5867 5867 5867 5867 5867 5867
5675 5679 5682 5686 5690 5693 5696 5700 5704 5707 5710 5714 5718 5722 5727 5731 5735 5738 5741 5744 5747 5751 5754 5758 5761 5764 5768 5771 5775 5778 5781 5784 5787 5789 5792 5794 5796 5799 5801 5803 5805 5807 5810 5812 5814 5816 5818 5819 5821 5823 5824 5826 5828 5829 5831 5832 5834 5836 5838 5839 5840 5841 5842 5843 5844 5846 5847 5848 5849 5850 5850 5853 5858 5857 5858 5859 5861 5863 5863 5862 5863 5864 5864 5864 5864 5864 5865 5865
5672 5675 5679 5683 5687 5690 5693 5697 5700 5704 5707 5710 5714 5719 5723 5727 5731 5734 5737 5739 5743 5746 5750 5753 5757 5760 5764 5768 5772 5775 5777 5780 5783 5785 5788 5790 5793 5795 5797 5800 5802 5804 5806 5808 5811 5813 5814 5816 5818 5820 5821 5823 5825 5827 5828 5829 5831 5833 5835 5836 5837 5838 5839 5840 5841 5842 5844 5844 5845 5847 5846 5848 5854 5854 5855 5857 5858 5859 5860 5860 5861 5861 5861 5861 5861 5862 5862 5862
5668 5672 5676 5680 5683 5687 5690 5694 5697 5701 5704 5707 5711 5715 5719 5723 5726 5729 5733 5735 5738 5742 5746 5750 5753 5757 5761 5764 5768 5771 5774 5776 5779 5781 5784 5786 5789 5792 5794 5796 5799 5801 5803 5805 5807 5810 5811 5813 5815 5817 5819 5821 5822 5824 5825 5826 5828 5829 5831 5833 5833 5835 5836 5837 5838 5839 5840 5841 5842 5844 5843 5843 5848 5852 5853 5854 5855 5856 5857 5857 5858 5859 5859 5858 5858 5858 5858 5859
5665 5668 5672 5676 5680 5683 5687 5690 5694 5697 5701 5704 5708 5711 5714 5718 5721 5725 5729 5730 5734 5739 5743 5747 5750 5754 5758 5760 5763 5767 5769 5772 5776 5778 5780 5783 5785 5788 5790 5793 5796 5797 5799 5801 5804 5807 5809 5810 5812 5814 5816 5818 5820 5821 5821 5822 5824 5825 5827 5829 5830 5831 5832 5833 5834 5835 5836 5838 5839 5841 5841 5838 5841 5848 5851 5851 5852 5853 5853 5853 5855 5856 5856 5855 5855 5855 5854 5854
5661 5664 5668 5672 5676 5679 5683 5687 5690 5694 5697 5701 5705 5708 5710 5713 5716 5720 5723 5724 5730 5736 5739 5743 5748 5751 5753 5755 5759 5763 5765 5769 5772 5773 5777 5779 5781 5784 5786 5789 5792 5793 5795 5798 5800 5803 5805 5807 5809 5811 5812 5814 5815 5816 5817 5819 5819 5821 5823 5825 5826 5827 5828 5830 5831 5831 5832 5834 5835 5838 5839 5835 5835 5843 5848 5848 5849 5849 5849 5851 5852 5852 5853 5853 5853 5852 5851 5850
5657 5660 5664 5667 5671 5676 5679 5683 5687 5690 5694 5698 5701 5703 5707 5709 5711 5714 5716 5719 5726 5732 5736 5740 5744 5747 5749 5752 5755 5758 5762 5765 5766 5769 5773 5774 5777 5780 5782 5785 5788 5789 5791 5794 5796 5799 5801 5803 5805 5806 5808 5810 5812 5812 5814 5815 5816 5818 5819 5820 5822 5823 5824 5826 5827 5828 5828 5829 5832 5834 5836 5834 5831 5836 5842 5844 5845 5846 5847 5848 5848 5848 5849 5850 5850 5849 5848 5848
5653 5656 5659 5664 5669 5672 5675 5679 5682 5686 5690 5693 5696 5699 5702 5704 5707 5708 5710 5716 5724 5728 5732 5736 5740 5743 5745 5748 5751 5754 5758 5760 5762 5765 5767 5769 5772 5775 5777 5780 5783 5785 5787 5789 5792 5795 5798 5800 5801 5803 5805 5807 5808 5809 5810 5811 5812 5814 5815 5816 5818 5818 5820 5821 5823 5825 5825 5826 5829 5830 5832 5833 5828 5828 5835 5838 5839 5842 5844 5844 5844 5845 5846 5846 5846 5846 5845 5844
5650 5653 5655 5660 5664 5667 5671 5674 5677 5681 5685 5688 5691 5694 5696 5699 5701 5701 5707 5718 5723 5723 5728 5732 5735 5738 5741 5744 5747 5750 5754 5756 5758 5760 5763 5766 5768 5770 5773 5776 5779 5781 5783 5785 5787 5790 5793 5795 5797 5799 5801 5803 5805 5806 5806 5807 5808 5809 5810 5811 5812 5813 5815 5817 5819 5821 5821 5823 5826 5825 5826 5829 5826 5826 5830 5831 5832 5837 5839 5840 5841 5841 5842 5842 5842 5842 5841 5841
5647 5650 5653 5656 5659 5662 5666 5669 5672 5676 5680 5683 5686 5688 5691 5693 5693 5697 5709 5719 5717 5717 5724 5728 5731 5735 5737 5739 5742 5745 5748 5750 5753 5756 5759 5761 5763 5766 5769 5772 5775 5777 5779 5782 5784 5786 5788 5791 5793 5794 5796 5797 5799 5800 5801 5802 5803 5804 5806 5807 5808 5809 5810 5813 5816 5817 5817 5820 5822 5820 5820 5823 5825 5827 5827 5825 5825 5830 5832 5834 5835 5835 5836 5837 5837 5837 5837 5836
5643 5647 5649 5652 5655 5659 5661 5664 5669 5672 5675 5678 5680 5683 5685 5685 5688 5699 5710 5713 5710 5712 5719 5724 5727 5729 5730 5733 5737 5740 5742 5744 5747 5751 5753 5755 5758 5761 5764 5767 5770 5772 5775 5777 5778 5780 5782 5784 5787 5789 5791 5792 5794 5796 5797 5799 5800 5800 5802 5803 5803 5805 5806 5808 5810 5810 5813 5817 5817 5816 5816 5817 5822 5825 5824 5822 5822 5824 5826 5827 5827 5827 5828 5830 5831 5831 5830 5830
5639 5642 5645 5648 5652 5655 5657 5661 5665 5668 5671 5673 5675 5678 5678 5679 5690 5701 5704 5704 5704 5708 5714 5720 5722 5722 5724 5728 5731 5734 5737 5739 5742 5745 5747 5749 5752 5755 5759 5762 5765 5767 5769 5771 5772 5775 5776 5778 5782 5784 5786 5788 5790 5791 5793 5794 5794 5795 5797 5797 5798 5801 5802 5803 5804 5804 5808 5812 5812 5811 5811 5813 5818 5821 5821 5821 5821 5820 5821 5822 5821 5821 5821 5822 5823 5822 5821 5821
5634 5637 5641 5645 5648 5651 5654 5657 5660 5664 5667 5668 5669 5670 5672 5679 5690 5695 5695 5697 5700 5704 5709 5713 5714 5715 5719 5723 5725 5729 5732 5734 5737 5739 5741 5744 5748 5752 5755 5757 5760 5762 5764 5766 5768 5771 5771 5774 5778 5779 5780 5784 5785 5786 5787 5787 5788 5790 5791 5792 5795 5798 5798 5797 5797 5799 5803 5804 5805 5807 5808 5811 5815 5816 5817 5817 5818 5818 5817 5816 5816 5816 5816 5815 5815 5815 5814 5812
5629 5633 5637 5641 5644 5648 5651 5653 5657 5660 5662 5663 5662 5663 5670 5680 5685 5687 5689 5691 5694 5699 5702 5703 5706 5710 5714 5717 5721 5724 5727 5730 5731 5732 5735 5740 5743 5746 5750 5753 5756 5757 5759 5761 5763 5764 5765 5768 5771 5773 5775 5778 5778 5779 5781 5782 5783 5784 5786 5789 5793 5793 5792 5791 5791 5794 5795 5795 5799 5803 5804 5809 5811 5811 5813 5813 5813 5814 5813 5812 5813 5812 5811 5810 5809 5809 5808 5806
5624 5628 5632 5636 5640 5644 5646 5650 5653 5655 5657 5658 5657 5660 5669 5675 5678 5681 5684 5685 5689 5694 5695 5695 5700 5706 5709 5712 5716 5719 5722 5724 5725 5726 5731 5734 5736 5741 5746 5748 5750 5751 5754 5756 5756 5757 5759 5760 5763 5767 5769 5771 5772 5772 5774 5776 5777 5779 5782 5786 5787 5785 5785 5785 5785 5787 5788 5787 5792 5797 5800 5804 5807 5807 5809 5809 5809 5810 5809 5808 5808 5807 5807 5806 5805 5804 5802 5801
5619 5623 5627 5631 5635 5638 5641 5644 5648 5650 5652 5652 5652 5657 5664 5668 5672 5675 5677 5679 5683 5686 5687 5688 5693 5699 5703 5706 5710 5713 5716 5717 5719 5722 5725 5727 5730 5737 5742 5743 5745 5747 5749 5750 5749 5750 5752 5753 5757 5761 5763 5764 5765 5766 5768 5771 5772 5774 5777 5779 5779 5778 5779 5779 5779 5781 5783 5782 5785 5792 5794 5796 5801 5804 5805 5805 5806 5805 5805 5803 5802 5801 5802 5802 5801 5800 5799 5798
5613 5618 5622 5625 5628 5631 5635 5638 5641 5644 5645 5645 5646 5652 5658 5663 5667 5670 5672 5675 5676 5679 5681 5683 5687 5693 5696 5700 5705 5707 5709 5711 5714 5717 5719 5721 5726 5733 5737 5738 5739 5741 5742 5742 5743 5745 5746 5746 5750 5754 5756 5757 5758 5760 5764 5766 5767 5768 5770 5772 5772 5773 5773 5774 5774 5775 5777 5777 5779 5784 5785 5788 5796 5800 5800 5801 5801 5800 5799 5798 5797 5796 5796 5796 5796 5795 5795 5795
5607 5611 5615 5618 5621 5625 5628 5630 5633 5636 5637 5638 5642 5648 5654 5658 5661 5665 5667 5670 5672 5674 5676 5678 5682 5686 5690 5695 5698 5700 5703 5706 5709 5712 5714 5716 5721 5726 5730 5730 5732 5735 5735 5735 5737 5738 5738 5739 5743 5746 5747 5748 5752 5756 5759 5760 5760 5761 5763 5764 5766 5768 5767 5767 5767 5768 5770 5770 5772 5774 5775 5783 5793 5796 5795 5795 5795 5794 5793 5793 5792 5791 5791 5790 5789 5789 5788 5788
5601 5606 5609 5612 5615 5618 5621 5622 5625 5628 5630 5633 5638 5644 5648 5651 5655 5659 5662 5664 5667 5669 5671 5673 5677 5680 5684 5688 5691 5694 5697 5699 5702 5706 5708 5711 5716 5719 5721 5723 5725 5727 5728 5727 5729 5731 5731 5733 5735 5737 5739 5743 5748 5750 5750 5751 5752 5755 5756 5757 5760 5761 5760 5759 5759 5761 5762 5762 5765 5765 5766 5778 5788 5790 5791 5790 5788 5789 5787 5786 5786 5785 5785 5785 5783 5782 5782 5781
5595 5600 5603 5605 5608 5611 5613 5614 5618 5621 5623 5629 5635 5639 5641 5645 5649 5652 5655 5658 5661 5663 5665 5669 5673 5676 5678 5682 5685 5688 5691 5692 5695 5699 5701 5706 5711 5713 5714 5717 5719 5720 5721 5722 5724 5727 5727 5727 5728 5730 5734 5738 5741 5740 5741 5742 5744 5747 5749 5751 5753 5752 5752 5752 5752 5755 5755 5755 5759 5759 5759 5773 5784 5784 5786 5786 5783 5783 5780 5778 5779 5779 5779 5779 5777 5775 5775 5775
5589 5593 5595 5597 5601 5603 5604 5607 5611 5615 5620 5626 5630 5632 5635 5639 5642 5645 5648 5651 5655 5658 5660 5663 5668 5671 5672 5676 5679 5681 5684 5687 5689 5692 5696 5700 5704 5706 5707 5710 5712 5714 5715 5715 5718 5720 5720 5719 5721 5725 5728 5730 5732 5732 5733 5735 5736 5738 5741 5745 5745 5745 5746 5747 5746 5749 5747 5747 5754 5753 5751 5767 5779 5779 5781 5780 5777 5776 5774 5773 5774 5772 5772 5771 5769 5769 5768 5767
5581 5584 5586 5590 5593 5595 5597 5602 5607 5612 5617 5621 5622 5626 5630 5633 5636 5640 5643 5646 5649 5653 5655 5657 5661 5664 5667 5671 5674 5674 5677 5680 5683 5687 5691 5694 5697 5699 5701 5702 5705 5706 5708 5709 5711 5713 5713 5714 5717 5719 5720 5722 5724 5724 5726 5728 5729 5731 5735 5738 5739 5741 5742 5741 5741 5742 5739 5742 5750 5745 5742 5760 5774 5772 5773 5773 5770 5769 5769 5768 5768 5767 5766 5764 5762 5761 5761 5761
5574 5576 5579 5583 5586 5588 5592 5597 5601 5605 5609 5612 5615 5621 5625 5628 5632 5636 5639 5641 5644 5646 5649 5652 5655 5658 5661 5665 5667 5669 5671 5675 5678 5681 5684 5687 5690 5692 5694 5695 5697 5698 5701 5703 5705 5706 5707 5708 5710 5712 5712 5714 5717 5719 5721 5725 5725 5726 5729 5732 5734 5735 5735 5735 5736 5734 5733 5739 5744 5736 5737 5754 5765 5764 5764 5765 5764 5763 5763 5761 5760 5760 5759 5758 5757 5755 5755 5755
5567 5570 5573 5576 5579 5582 5586 5591 5594 5598 5602 5605 5609 5615 5618 5622 5628 5631 5633 5635 5638 5641 5644 5646 5649 5652 5654 5657 5661 5664 5666 5670 5672 5673 5677 5680 5683 5685 5687 5688 5690 5691 5693 5695 5697 5698 5700 5701 5703 5705 5706 5710 5713 5714 5716 5718 5717 5718 5722 5724 5725 5726 5727 5728 5726 5725 5729 5734 5733 5731 5736 5744 5752 5756 5757 5757 5757 5757 5756 5754 5752 5751 5750 5750 5750 5750 5750 5749
5561 5565 5569 5571 5572 5575 5579 5584 5588 5593 5597 5599 5602 5608 5612 5617 5621 5623 5625 5629 5632 5636 5638 5639 5642 5645 5648 5652 5656 5659 5662 5664 5665 5667 5671 5673 5675 5678 5680 5681 5683 5684 5686 5687 5688 5690 5692 5694 5697 5699 5701 5705 5707 5706 5706 5708 5709 5711 5714 5716 5717 5719 5720 5718 5717 5722 5728 5725 5721 5730 5736 5733 5740 5750 5750 5748 5750 5749 5748 5747 5745 5743 5741 5741 5742 5742 5741 5740
5557 5561 5564 5564 5565 5568 5574 5579 5584 5588 5590 5590 5594 5600 5604 5608 5613 5616 5620 5624 5627 5629 5630 5632 5636 5641 5645 5649 5651 5653 5656 5657 5659 5662 5666 5668 5669 5671 5673 5675 5677 5678 5680 5680 5681 5682 5684 5686 5690 5693 5695 5699 5701 5698 5699 5701 5702 5703 5706 5708 5710 5712 5712 5712 5713 5719 5721 5714 5714 5727 5729 5723 5731 5742 5740 5739 5743 5742 5740 5741 5739 5737 5734 5733 5732 5730 5729 5729
5552 5556 5557 5557 5559 5563 5568 5573 5575 5576 5579 5581 5586 5591 5595 5600 5606 5611 5615 5617 5618 5621 5624 5627 5633 5638 5641 5643 5644 5645 5648 5651 5654 5659 5662 5663 5664 5665 5667 5668 5670 5672 5674 5674 5674 5675 5677 5679 5683 5685 5688 5694 5695 5692 5692 5694 5694 5695 5697 5699 5702 5704 5706 5706 5708 5711 5711 5705 5709 5718 5717 5715 5725 5733 5732 5733 5735 5734 5732 5733 5732 5730 5728 5726 5722 5719 5719 5721
5547 5549 5550 5550 5553 5559 5561 5563 5565 5568 5571 5574 5577 5583 5588 5594 5599 5604 5606 5608 5611 5616 5619 5622 5630 5634 5634 5636 5636 5638 5643 5647 5651 5655 5658 5658 5658 5659 5661 5662 5665 5667 5668 5669 5669 5670 5671 5673 5676 5678 5680 5685 5689 5687 5686 5687 5687 5688 5689 5691 5695 5697 5698 5698 5699 5702 5701 5700 5704 5708 5705 5709 5720 5723 5722 5726 5727 5723 5723 5724 5724 5723 5721 5718 5715 5713 5713 5715
5539 5541 5542 5543 5547 5552 5554 5555 5558 5561 5563 5566 5571 5579 5584 5588 5594 5597 5597 5599 5603 5608 5611 5617 5623 5625 5625 5627 5628 5633 5641 5644 5645 5649 5650 5649 5651 5653 5654 5655 5658 5660 5662 5664 5664 5664 5666 5667 5670 5672 5671 5675 5682 5681 5678 5681 5680 5679 5683 5688 5691 5691 5690 5690 5692 5694 5694 5694 5696 5696 5695 5703 5715 5714 5711 5716 5717 5714 5715 5717 5716 5714 5712 5709 5708 5709 5709 5708
5530 5532 5534 5535 5539 5543 5545 5548 5550 5552 5556 5562 5569 5575 5578 5582 5587 5587 5586 5590 5596 5600 5605 5610 5613 5613 5614 5617 5623 5632 5637 5635 5636 5639 5640 5641 5644 5646 5647 5649 5651 5652 5655 5657 5657 5659 5660 5661 5664 5667 5664 5668 5675 5674 5672 5674 5670 5669 5680 5689 5689 5685 5683 5683 5684 5686 5688 5687 5685 5685 5688 5697 5705 5704 5703 5707 5709 5706 5707 5709 5706 5704 5703 5701 5701 5705 5705 5701